Saint-Hubert, Quebec

11:48 PM EST on February 21, 2017 (GMT -0500)
Montreal / St-Hubert

Weather History for CYHU - October, 2012

Change the Weather History Date:

Tuesday, October 2, 2012

  Actual Average Record
Temperature  
Mean Temperature 58 °F -  
Max Temperature 66 °F 55 °F 77 °F (2005)
Min Temperature 49 °F 36 °F 33 °F (1997)
Degree Days  
Heating Degree Days 8    
Growing Degree Days 8 (Base 50)    
Moisture  
Dew Point 52 °F    
Average Humidity 86    
Maximum Humidity 97    
Minimum Humidity 58    
Precipitation  
Precipitation 0.00 in 0.11 in - ()
Sea Level Pressure  
Sea Level Pressure 29.97 in    
Wind  
Wind Speed 6 mph ()    
Max Wind Speed 12 mph    
Max Gust Speed -    
Visibility 7.8 miles    
Events      
Averages and records for this station are not official NWS values.
T = Trace of Precipitation, MM = Missing Value Source: Averaged Metar Reports

Daily Weather History Graph

Daily Weather History Graph

Search for Another Location

Airport or City:

Trip Planner

Search our weather history database for the weather conditions in past years. The results will help you decide how hot, cold, wet, or windy it might be!

Date:

Astronomy

Oct. 02, 2012 Rise Set
Actual Time 6:53 AM EDT 6:31 PM EDT
Civil Twilight 6:24 AM EDT 7:00 PM EDT
Nautical Twilight 5:49 AM EDT 7:34 PM EDT
Astronomical Twilight 5:14 AM EDT 8:09 PM EDT
Moon 7:31 PM EDT (10/2) 9:28 AM EDT (10/2)
Length of Visible Light 12h 36m
Length of Day
11h 37m
Waning Gibbous, 94% of the Moon is Illuminated
Oct 2
Waning Gibbous
Oct 8
Last Quarter
Oct 15
New
Oct 21
First Quarter
Oct 29
Full

Hourly Weather History & Observations

Time (EDT) Temp. Dew Point Humidity Pressure Visibility Wind Dir Wind Speed Gust Speed Precip Events Conditions
12:00 AM 53.6 °F 51.8 °F 94% 29.87 in 9.0 mi SSW 8.1 mph - N/A   Clear
1:00 AM 55.4 °F 53.6 °F 94% 29.88 in 9.0 mi WSW 8.1 mph - N/A   Scattered Clouds
2:00 AM 56 °F 53 °F 88% 29.88 in 10 mi WSW 8.1 mph - -  
2:00 AM 55.4 °F 53.6 °F 94% 29.88 in 9.0 mi WSW 8.1 mph - N/A   Clear
3:00 AM 55.4 °F 53.6 °F 94% 29.88 in 9.0 mi WSW 8.1 mph - N/A   Clear
4:00 AM 55.4 °F 53.6 °F 94% 29.90 in 9.0 mi WSW 8.1 mph - N/A   Clear
5:00 AM 55.4 °F 51.8 °F 88% 29.90 in 9.0 mi WSW 9.2 mph - N/A   Clear
6:00 AM 53.6 °F 51.8 °F 94% 29.92 in 9.0 mi South 3.5 mph - N/A   Clear
6:56 AM 50.0 °F 48.2 °F 94% 29.94 in 5.0 mi SSE 5.8 mph - N/A   Clear
7:00 AM 50.0 °F 48.2 °F 94% 29.94 in 5.0 mi SSE 5.8 mph - N/A   Clear
7:03 AM 50.0 °F 48.2 °F 94% 29.94 in 6.0 mi SSE 4.6 mph - N/A   Clear
8:00 AM 51 °F 50 °F 97% 29.96 in 10 mi SSE 2.3 mph - -  
8:00 AM 51.8 °F 50.0 °F 94% 29.96 in 9.0 mi South 3.5 mph - N/A   Clear
9:00 AM 55.4 °F 51.8 °F 88% 29.98 in 9.0 mi South 3.5 mph - N/A   Partly Cloudy
10:00 AM 57.2 °F 53.6 °F 88% 29.99 in 9.0 mi SSW 5.8 mph - N/A   Mostly Cloudy
11:00 AM 60.8 °F 53.6 °F 77% 29.99 in 9.0 mi SW 6.9 mph - N/A   Partly Cloudy
12:00 PM 62.6 °F 55.4 °F 77% 29.98 in 9.0 mi WSW 6.9 mph - N/A   Mostly Cloudy
1:00 PM 66.2 °F 55.4 °F 68% 29.98 in 9.0 mi SSW 9.2 mph - N/A   Overcast
2:00 PM 66 °F 55 °F 58% 29.96 in 10 mi SW 10.4 mph - -   Overcast
2:00 PM 66.2 °F 55.4 °F 68% 29.96 in 9.0 mi SW 11.5 mph - N/A   Overcast
3:00 PM 66.2 °F 55.4 °F 68% 29.96 in 9.0 mi SSW 6.9 mph - N/A   Overcast
4:00 PM 66.2 °F 55.4 °F 68% 29.97 in 9.0 mi South 5.8 mph - N/A   Overcast
5:00 PM 64.4 °F 55.4 °F 73% 29.97 in 9.0 mi South 9.2 mph - N/A   Overcast
6:00 PM 64.4 °F 53.6 °F 68% 29.99 in 9.0 mi South 6.9 mph - N/A   Overcast
7:00 PM 60.8 °F 55.4 °F 82% 30.00 in 9.0 mi South 5.8 mph - N/A   Partly Cloudy
8:00 PM 58 °F 54 °F 83% 30.01 in 10 mi South 8.1 mph - -  
8:00 PM 59.0 °F 53.6 °F 82% 30.01 in 9.0 mi South 6.9 mph - N/A   Clear
9:00 PM 59.0 °F 53.6 °F 82% 30.02 in 9.0 mi SSE 2.3 mph - N/A   Overcast
10:00 PM 57.2 °F 53.6 °F 88% 30.04 in 9.0 mi South 3.5 mph - N/A   Mostly Cloudy
11:00 PM 53.6 °F 51.8 °F 94% 30.04 in 7.0 mi East 2.3 mph - N/A   Clear
11:05 PM 53.6 °F 51.8 °F 94% 30.04 in 5.0 mi East 2.3 mph - N/A   Clear
11:12 PM 53.6 °F 51.8 °F 94% 30.04 in 6.0 mi East 2.3 mph - N/A   Clear
11:14 PM 51.8 °F 50.0 °F 94% 30.04 in 5.0 mi East 2.3 mph - N/A   Clear
11:24 PM 51.8 °F 50.0 °F 94% 30.04 in 6.0 mi ESE 2.3 mph - N/A   Clear
11:42 PM 51.8 °F 50.0 °F 94% 30.04 in 4.0 mi SE 3.5 mph - N/A   Clear
11:48 PM 51.8 °F 50.0 °F 94% 30.04 in 2.2 mi ESE 2.3 mph - N/A   Clear
11:53 PM 51.8 °F 50.0 °F 94% 30.04 in 4.0 mi East 2.3 mph - N/A   Clear
11:58 PM 51.8 °F 50.0 °F 94% 30.04 in 2.2 mi East 3.5 mph - N/A   Clear